Regional Weather Roundup
Issued by NWS Charleston, WV

Home | Current Version | Previous Version | Graphics & Text | Print | Product List | Glossary On
Versions: 1 2 3 4 5 6 7 8 9 10 11 12 13 14 15 16 17 18 19 20 21 22 23 24 25 26 27 28 29 30 31 32 33 34 35 36 37 38 39 40 41 42 43 44 45 46 47 48 49 50
000
ASUS41 KRLX 021110
RWRRLX
West Virginia Regional Weather Roundup
National Weather Service Charleston WV
700 AM EDT SUN AUG 02 2015

Note: "fair" indicates few or no clouds below 12,000 feet with no
significant weather and/or obstructions to visibility.

WVZ003-021200-
Northern Panhandle of West Virginia

CITY           SKY/WX    TMP DP  RH WIND       PRES   REMARKS
WHEELING       CLOUDY    64  56  75 CALM      29.97S
$$

WVZ009-021200-
Northwest West Virginia

CITY           SKY/WX    TMP DP  RH WIND       PRES   REMARKS
PARKERSBURG    PTCLDY    59  56  89 CALM      30.00F
$$

WVZ006-021200-
Western West Virginia

CITY           SKY/WX    TMP DP  RH WIND       PRES   REMARKS
HUNTINGTON     MOCLDY    60  60 100 CALM      30.00S
$$

WVZ015-021200-
West Central West Virginia

CITY           SKY/WX    TMP DP  RH WIND       PRES   REMARKS
CHARLESTON     MOCLDY    60  59  96 CALM      30.01R
$$

WVZ022-031-021200-
North Central West Virginia

CITY           SKY/WX    TMP DP  RH WIND       PRES   REMARKS
CLARKSBURG     PTCLDY    58  56  93 CALM      30.00R
MORGANTOWN     PTCLDY    62  55  77 CALM      30.01R
$$

WVZ025-035-042-045-021200-
Southern West Virginia

CITY           SKY/WX    TMP DP  RH WIND       PRES   REMARKS
BECKLEY        CLEAR     56  53  90 CALM      30.07S
LOGAN          FOG       61  61 100 CALM      30.00S VSB 1
BLUEFIELD      CLEAR     62  53  72 W3        30.09R
LEWISBURG      PTCLDY    54  51  92 CALM      30.07S
$$

WVZ047-021200-
Northern Mountains of West Virginia

CITY           SKY/WX    TMP DP  RH WIND       PRES   REMARKS
ELKINS         PTCLDY    53  51  93 CALM      30.06S
$$

WVZ052-021200-
Eastern Panhandle of West Virginia

CITY           SKY/WX    TMP DP  RH WIND       PRES   REMARKS
MARTINSBURG    CLEAR     61  55  81 CALM      29.96R
PETERSBURG     PTCLDY   N/A N/A N/A CALM      30.01S
$$



USA.gov is the U.S. government's official web portal to all federal, state and local government web resources and services.